{"data":{"norad_id":40275,"epoch":"2026-05-24T23:45:45.821088Z","epoch_age_seconds":66145,"freshness":"FRESH","line1":"1 40275U 14063A   26144.99011367 -.00000004  00000+0  11262-3 0  9994","line2":"2 40275 100.7693 295.8808 0005865 239.3912 120.6621 13.15530447556769","mean_motion":13.15530447,"eccentricity":0.0005865,"inclination_deg":100.7693,"raan_deg":295.8808,"arg_perigee_deg":239.3912,"mean_anomaly_deg":120.6621,"bstar":0.00011262,"rev_number":55676,"period_min":109.46154863111,"perigee_km":1197.3946486307,"apogee_km":1206.2859620098,"semimajor_km":7579.9773053203,"source":"CELESTRAK","updated_at":"2026-05-25T13:38:12.786612Z"}}